Location: Grand Rapids
(42.9630°N, 85.6680°W)
Time: 03:05:21
(UTC-04:00)

S-56A Canister/Altair - Pass Details

Date: 31 May 2024
Orbit: 637 x 2489 km, 38.9° (Epoch: 22 June)

Event Time Altitude Azimuth Distance (km) Brightness Sun altitude
Rises 10:10:19 0° 282° (WNW) 5,775 11.5 41.9°
Reaches altitude 10° 10:14:38 10° 277° (W) 4,539 11.1 42.7°
Maximum altitude 10:25:39 46° 210° (SSW) 2,004 10.0 44.7°
Drops below altitude 10° 10:33:10 10° 140° (SE) 3,120 11.4 46.0°
Sets 10:35:37 0° 133° (SE) 3,867 11.7 46.5°
